Погода в Порт-Стэнли

Фолклендские острова     51°41′50″S   57°50′33″W
темп.,
°C
ветер,
м/с
пор.,
м/с
влажн.,
%
обл.,
%
осадки,
мм/ч
давл.,
гПа
погр.,
м
9 августа, вт
вт923:00+3ссз81195100 0.1 1025699
02:00+4ссз91391100 0.1 1023771
05:00+4ссз101496100 0.6 1020777
08:00+5ссз101491100 0.8 1018539
11:00+5ссз101589100 0.1 1016646
14:00+5ссз101591100 0.1 1013554
17:00+5ссз81292100 0.1 1012386
20:00+5ссз7108995 0.3 1010240
10 августа, ср
ср1023:00+5ссз798997 0.0 1009280
02:00+5ссз578672 0.1 1009137
05:00+4ссз579114 0.0 1008164
08:00+4с569263 0.0 1008109
11:00+5с7890100 0.0 1007147
14:00+6ссз5789100 0.0 100678
17:00+5ссз5793100 0.0 100684
20:00+5сз6894100 0.0 1006114
11 августа, чт
чт1123:00+5ссз569397 0.0 100684
02:00+4зсз339120 0.0 100641
05:00+4сз22905 0.0 100521
08:00+4с3388100 0.0 100546
11:00+5ссз5588100 0.0 100470
14:00+5с6688100 0.0 100281
17:00+5ссз5689100 0.0 100172
20:00+5сз4489100 0.0 100045
12 августа, пт
пт1223:00+5ссз5589100 0.3 100065
02:00+5ссз58915 0.3 1000138
05:00+4ссз4592100 0.0 100095
08:00+4ссз5793100 0.0 999143
11:00+5ссз689099 0.0 999149
14:00+5с7989100 0.0 997147
17:00+5с71088100 0.0 996149
20:00+6ссз71293100 4.0 995204
13 августа, сб
сб1323:00+4ссв6896100 3.6 993176
02:00+4ссз699598 3.6 991226
05:00+5сз69850 0.0 990263
08:00+4сз69900 0.0 991271
11:00+5сз67843 0.0 992173
14:00+5зсз8108283 0.0 992293
17:00+5зсз7974100 0.2 994321
20:00+4сз77875 0.4 993398